Weather History for KVWU - April, 2013

Change the Weather History Date:

Thursday, April 18, 2013

  Actual Average (KBDE) Record (KBDE)
Temperature  
Mean Temperature 34 °F -  
Max Temperature 37 °F 56 °F 87 °F (1987)
Min Temperature 30 °F 30 °F 15 °F (1988)
Degree Days  
Heating Degree Days 32    
Moisture  
Dew Point 28 °F    
Average Humidity 82    
Maximum Humidity 100    
Minimum Humidity 60    
Precipitation  
Precipitation 0.00 in - - ()
Sea Level Pressure  
Sea Level Pressure 29.90 in    
Wind  
Wind Speed 7 mph (North)    
Max Wind Speed 20 mph    
Max Gust Speed 28 mph    
Visibility 9 miles    
Events Snow    
Averages and records for this station are not official NWS values.
T = Trace of Precipitation, MM = Missing Value Source: NWS Daily Summary

Daily Weather History Graph

Daily Weather History Graph

Search for Another Location

Airport or City:

Trip Planner

Search our weather history database for the weather conditions in past years. The results will help you decide how hot, cold, wet, or windy it might be!

Date:

Astronomy

Apr. 18, 2013 Rise Set
Actual Time 6:22 AM CDT 8:13 PM CDT
Civil Twilight 5:49 AM CDT 8:46 PM CDT
Nautical Twilight 5:08 AM CDT 9:27 PM CDT
Astronomical Twilight 4:23 AM CDT 10:12 PM CDT
Moon 12:29 PM CDT (4/18) 2:34 AM CDT (4/18)
Length of Visible Light 14h 57m
Length of Day
13h 51m
First Quarter, 52% of the Moon is Illuminated
Apr 18
First Quarter
Apr 25
Full
May 2
Last Quarter
May 9
New
May 17
First Quarter

Hourly Weather History & Observations

Time (CDT) Temp. Windchill Dew Point Humidity Pressure Visibility Wind Dir Wind Speed Gust Speed Precip Events Conditions
12:06 AM 32.0 °F - 30.2 °F 93% 30.11 in 7.0 mi Calm Calm - N/A Snow Light Snow
12:27 AM 32.0 °F 28.7 °F 30.2 °F 93% 30.09 in 10.0 mi NE 3.5 mph - N/A Snow Light Snow
12:47 AM 32.0 °F 28.7 °F 30.2 °F 93% 30.07 in 7.0 mi NE 3.5 mph - N/A Snow Light Snow
1:06 AM 32.0 °F - 30.2 °F 93% 30.08 in 5.0 mi Calm Calm - N/A Snow Light Snow
1:27 AM 32.0 °F 28.7 °F 30.2 °F 93% 30.07 in 7.0 mi NE 3.5 mph - N/A Snow Light Snow
1:47 AM 32.0 °F - 30.2 °F 93% 30.06 in 7.0 mi Calm Calm - N/A Snow Light Snow
2:06 AM 30.2 °F - 30.2 °F 100% 30.05 in 10.0 mi Calm Calm - N/A Snow Light Snow
2:27 AM 30.2 °F - 30.2 °F 100% 30.03 in 7.0 mi Calm Calm - N/A Snow Light Snow
2:47 AM 30.2 °F - 30.2 °F 100% 30.03 in 5.0 mi Calm Calm - N/A Snow Light Snow
3:06 AM 30.2 °F 26.7 °F 30.2 °F 100% 30.02 in 4.0 mi North 3.5 mph - N/A Snow Light Snow
3:27 AM 30.2 °F 26.7 °F 30.2 °F 100% 30.01 in 4.0 mi North 3.5 mph - N/A Snow Light Snow
3:47 AM 30.2 °F 25.4 °F 30.2 °F 100% 30.01 in 4.0 mi North 4.6 mph - N/A Snow Light Snow
4:06 AM 30.2 °F 25.4 °F 30.2 °F 100% 29.99 in 7.0 mi NNE 4.6 mph - N/A Snow Light Snow
4:27 AM 30.2 °F 24.3 °F 30.2 °F 100% 29.98 in 10.0 mi NNE 5.8 mph - N/A   Overcast
4:47 AM 30.2 °F 25.4 °F 30.2 °F 100% 29.99 in 10.0 mi NNE 4.6 mph - N/A   Overcast
5:06 AM 30.2 °F - 30.2 °F 100% 30.00 in 10.0 mi Calm Calm - N/A   Overcast
5:27 AM 30.2 °F 26.7 °F 30.2 °F 100% 30.00 in 10.0 mi North 3.5 mph - N/A Snow Light Snow
5:47 AM 30.2 °F 25.4 °F 30.2 °F 100% 29.99 in 10.0 mi North 4.6 mph - N/A   Overcast
6:07 AM 30.2 °F 25.4 °F 28.4 °F 93% 29.97 in 10.0 mi North 4.6 mph - N/A   Overcast
6:27 AM 30.2 °F 25.4 °F 28.4 °F 93% 29.98 in 7.0 mi North 4.6 mph - N/A Snow Light Snow
6:47 AM 30.2 °F 26.7 °F 30.2 °F 100% 29.98 in 3.0 mi North 3.5 mph - N/A Snow Light Snow
7:07 AM 30.2 °F 25.4 °F 30.2 °F 100% 29.97 in 4.0 mi North 4.6 mph - N/A Snow Light Snow
7:27 AM 30.2 °F 23.4 °F 30.2 °F 100% 29.96 in 7.0 mi North 6.9 mph - N/A Snow Light Snow
7:47 AM 30.2 °F 24.3 °F 30.2 °F 100% 29.97 in 5.0 mi North 5.8 mph - N/A Snow Light Snow
8:07 AM 30.2 °F 22.6 °F 30.2 °F 100% 29.96 in 5.0 mi North 8.1 mph - N/A Snow Light Snow
8:27 AM 32.0 °F 25.6 °F 30.2 °F 93% 29.96 in 5.0 mi North 6.9 mph - N/A Snow Light Snow
8:47 AM 32.0 °F 23.6 °F 30.2 °F 93% 29.94 in 4.0 mi North 10.4 mph - N/A Snow Light Snow
9:07 AM 32.0 °F 24.8 °F 32.0 °F 100% 29.94 in 5.0 mi North 8.1 mph - N/A Snow Light Snow
9:27 AM 33.8 °F 26.4 °F 32.0 °F 93% 29.93 in 7.0 mi North 9.2 mph - N/A Snow Light Snow
9:47 AM 33.8 °F 27.0 °F 32.0 °F 93% 29.93 in 7.0 mi North 8.1 mph - N/A Snow Light Snow
10:07 AM 33.8 °F 24.3 °F 32.0 °F 93% 29.92 in 10.0 mi North 13.8 mph 19.6 mph N/A   Overcast
10:27 AM 33.8 °F 25.8 °F 32.0 °F 93% 29.91 in 10.0 mi North 10.4 mph - N/A   Overcast
10:46 AM 33.8 °F 25.8 °F 32.0 °F 93% 29.90 in 10.0 mi North 10.4 mph - N/A   Mostly Cloudy
11:07 AM 35.6 °F 26.2 °F 30.2 °F 81% 29.89 in 10.0 mi North 15.0 mph - N/A   Overcast
11:27 AM 35.6 °F 27.5 °F 30.2 °F 81% 29.88 in 10.0 mi North 11.5 mph 17.3 mph N/A   Mostly Cloudy
11:46 AM 35.6 °F 24.8 °F 28.4 °F 75% 29.87 in 10.0 mi North 19.6 mph 26.5 mph N/A   Mostly Cloudy
12:07 PM 35.6 °F 25.5 °F 26.6 °F 70% 29.86 in 10.0 mi NNE 17.3 mph 20.7 mph N/A   Mostly Cloudy
12:27 PM 35.6 °F 25.5 °F 28.4 °F 75% 29.85 in 10.0 mi NNE 17.3 mph 23.0 mph N/A   Overcast
12:47 PM 35.6 °F 27.5 °F 26.6 °F 70% 29.84 in 10.0 mi North 11.5 mph 25.3 mph N/A   Overcast
1:07 PM 35.6 °F 27.1 °F 26.6 °F 70% 29.84 in 10.0 mi North 12.7 mph 20.7 mph N/A   Overcast
1:27 PM 35.6 °F 28.0 °F 26.6 °F 70% 29.83 in 10.0 mi North 10.4 mph 17.3 mph N/A   Overcast
1:46 PM 35.6 °F 28.0 °F 26.6 °F 70% 29.84 in 10.0 mi NNW 10.4 mph 24.2 mph N/A   Overcast
2:07 PM 35.6 °F 26.6 °F 26.6 °F 70% 29.84 in 10.0 mi North 13.8 mph 18.4 mph N/A   Mostly Cloudy
2:27 PM 35.6 °F 26.6 °F 26.6 °F 70% 29.83 in 10.0 mi North 13.8 mph 24.2 mph N/A   Mostly Cloudy
2:55 PM 35.6 °F 26.6 °F 24.8 °F 65% 29.84 in 10.0 mi North 13.8 mph 21.9 mph N/A   Mostly Cloudy
3:35 PM 35.6 °F 26.2 °F 24.8 °F 65% 29.82 in 10.0 mi North 15.0 mph 21.9 mph N/A   Scattered Clouds
3:55 PM 35.6 °F 25.9 °F 24.8 °F 65% 29.82 in 10.0 mi North 16.1 mph 25.3 mph N/A   Scattered Clouds
4:15 PM 35.6 °F 25.5 °F 24.8 °F 65% 29.81 in 10.0 mi North 17.3 mph 27.6 mph N/A   Scattered Clouds
4:35 PM 35.6 °F 27.1 °F 24.8 °F 65% 29.80 in 10.0 mi North 12.7 mph 24.2 mph N/A   Scattered Clouds
4:55 PM 37.4 °F 29.3 °F 24.8 °F 60% 29.80 in 10.0 mi North 12.7 mph 26.5 mph N/A   Scattered Clouds
5:15 PM 37.4 °F 27.8 °F 24.8 °F 60% 29.80 in 10.0 mi North 17.3 mph 25.3 mph N/A   Scattered Clouds
5:35 PM 37.4 °F 28.5 °F 24.8 °F 60% 29.79 in 10.0 mi North 15.0 mph 24.2 mph N/A   Clear
5:55 PM 37.4 °F 27.5 °F 24.8 °F 60% 29.79 in 10.0 mi North 18.4 mph 25.3 mph N/A   Scattered Clouds
6:15 PM 35.6 °F 25.5 °F 24.8 °F 65% 29.79 in 10.0 mi North 17.3 mph 25.3 mph N/A   Scattered Clouds
6:35 PM 35.6 °F 27.5 °F 24.8 °F 65% 29.79 in 10.0 mi North 11.5 mph 24.2 mph N/A   Scattered Clouds
6:55 PM 35.6 °F 28.0 °F 24.8 °F 65% 29.80 in 10.0 mi North 10.4 mph 19.6 mph N/A   Mostly Cloudy
7:15 PM 35.6 °F 26.6 °F 24.8 °F 65% 29.80 in 10.0 mi NNE 13.8 mph 27.6 mph N/A   Overcast
7:35 PM 33.8 °F 26.4 °F 24.8 °F 70% 29.80 in 10.0 mi North 9.2 mph 19.6 mph N/A   Overcast
7:55 PM 33.8 °F 24.3 °F 24.8 °F 70% 29.79 in 10.0 mi North 13.8 mph 20.7 mph N/A   Overcast
8:15 PM 33.8 °F 23.5 °F 24.8 °F 70% 29.78 in 10.0 mi North 16.1 mph 21.9 mph N/A   Overcast
8:35 PM 33.8 °F 23.9 °F 24.8 °F 70% 29.78 in 10.0 mi North 15.0 mph 21.9 mph N/A   Overcast
8:55 PM 33.8 °F 27.0 °F 24.8 °F 70% 29.78 in 10.0 mi North 8.1 mph 18.4 mph N/A   Overcast
9:15 PM 33.8 °F 24.3 °F 24.8 °F 70% 29.78 in 10.0 mi North 13.8 mph 20.7 mph N/A   Overcast
9:35 PM 33.8 °F 24.8 °F 24.8 °F 70% 29.78 in 10.0 mi North 12.7 mph 19.6 mph N/A   Overcast
9:55 PM 33.8 °F 27.0 °F 24.8 °F 70% 29.77 in 10.0 mi North 8.1 mph 18.4 mph N/A   Overcast
10:35 PM 33.8 °F 26.4 °F 24.8 °F 70% 29.76 in 10.0 mi North 9.2 mph - N/A   Mostly Cloudy
10:55 PM 33.8 °F 25.8 °F 24.8 °F 70% 29.76 in 10.0 mi North 10.4 mph 17.3 mph N/A   Overcast
11:14 PM 33.8 °F 25.3 °F 24.8 °F 70% 29.76 in 10.0 mi North 11.5 mph 19.6 mph N/A   Overcast
11:35 PM 33.8 °F 24.8 °F 24.8 °F 70% 29.75 in 10.0 mi North 12.7 mph 17.3 mph N/A   Overcast
11:55 PM 32.0 °F 23.6 °F 24.8 °F 75% 29.75 in 10.0 mi North 10.4 mph 17.3 mph N/A   Overcast